340  
ASUS44 KSHV 282110  
RWRSHV  
 
THE FOUR STATE AREA WEATHER ROUNDUP  
NATIONAL WEATHER SERVICE SHREVEPORT LA  
300 PM CST MON NOV 28 2022  
 
NOTE: "FAIR" INDICATES FEW OR NO CLOUDS BELOW 12000 FEET  
WITH NO SIGNIFICANT WEATHER AND/OR S TO VISIBILITY
.  
 
!LAZ001-LAZ014-TXZ097-282200  
SHREVEPORT...MONROE...TEXARKANA RADIOS  
 
CITY SKY/WX TMP DP RH WIND PRES REMARKS
 
SHREVEPORT MOSUNNY 70 48 46 S8 29.92F  
MONROE SUNNY 69 48 47 SW9 29.96F  
NATCHITOCHES SUNNY 73 51 45 E6 29.95S  
TEXARKANA SUNNY 90 42 18 SE5 29.91F  
ATLANTA FAIR 66 46 49 SW6 29.90F  

 
 
!LAZ001-LAZ014-TXZ097-282200  
OTHER LOCATIONS...  
 
CITY SKY/WX TMP DP RH WIND PRES REMARKS
 
DOWNTOWN SHV SUNNY 68 48 48 S9 29.93F  
BOSSIER CITY SUNNY 68 47 46 S9 29.92F  
RUSTON SUNNY 67 46 47 SW6 29.95F  
LITTLE ROCK MOSUNNY 63 43 48 S10 29.93F  
EL DORADO SUNNY 65 45 48 SW6 29.94F  
JACKSON SUNNY 68 44 42 S5 29.97F  
NEW ORLEANS MOSUNNY 75 54 47 N5 29.97F  
HOUSTON SUNNY 74 52 46 S8 29.91F  
LUFKIN SUNNY 72 49 44 S3 29.91F  
TYLER SUNNY 69 46 43 S12 29.88F  
DAL FT WORTH MOSUNNY 69 47 45 S16 29.80F  

 
 
!TXZ136-TXZ165-282200  
TYLER...LUFKIN RADIOS  
 
CITY SKY/WX TMP DP RH WIND PRES REMARKS
 
TYLER SUNNY 69 46 43 S12 29.88F  
GILMER SUNNY 67 44 43 SE8 29.89F  
LONGVIEW SUNNY 69 47 45 SE9 29.90F  
LUFKIN SUNNY 72 49 44 S3 29.91F  

 
 
!TXZ136-TXZ165-282200  
OTHER LOCATIONS...  
 
CITY SKY/WX TMP DP RH WIND PRES REMARKS
 
NACOGDOCHES SUNNY 71 47 42 S7 29.92F  
BEAUMONT SUNNY 73 54 51 SE9 29.93F  
HOUSTON SUNNY 74 52 46 S8 29.91F  
COLLEGE STN SUNNY 75 51 43 S12 29.88F  
AUSTIN SUNNY 75 50 41 S13 29.86F  
DAL FT WORTH MOSUNNY 69 47 45 S16 29.80F  
TEXARKANA SUNNY 90 42 18 SE5 29.91F  
SHREVEPORT MOSUNNY 70 48 46 S8 29.92F  
FORT POLK SUNNY 71 49 45 CALM 29.93F  
LAKE CHARLES SUNNY 72 53 51 SE7 29.94F  

 
 
 
CLICK HERE TO GO TO PREVIOUS BULLETINS.

The Nexlab LA Page
The Nexlab TX Page
The Nexlab AR Page
The Nexlab OK Page Main Text Page